Wind_Speed
23 23 23 23 23 24 24 25 25 26 27 27 26 26 25 26 26 25 25 25 26 26 26 26 27 27 28 29 30 31 32 33 33 34 35 35 36 37 38 38 39 40 40
22 22 23 23 23 24 24 24 24 24 24 25 25 25 26 26 27 27 26 26 27 27 27 28 29 29 30 30 31 32 33 33 34 35 35 36 36 36 37 37 38 38 38
22 22 22 23 23 23 23 24 23 23 23 23 24 25 25 25 25 26 26 27 27 27 28 29 29 30 30 31 32 32 33 33 34 35 36 36 36 36 36 36 36 36 36
22 22 22 22 22 22 22 23 22 22 23 23 24 24 25 25 25 25 26 27 27 27 28 29 29 30 30 31 31 32 33 33 34 34 34 34 34 34 34 34 34 34 33
21 21 20 19 19 20 20 20 21 22 22 22 22 22 23 24 24 24 24 25 25 26 27 28 29 29 30 31 31 31 31 31 31 31 31 32 32 31 31 32 31 31 31
18 19 18 17 17 18 18 18 18 19 20 21 21 22 22 23 23 24 24 24 25 26 27 28 28 29 29 29 29 29 29 29 29 29 30 30 30 29 29 29 29 29 28
15 15 15 15 16 16 16 16 17 18 18 19 20 20 20 21 22 23 23 24 25 25 26 25 26 26 26 25 26 26 27 27 27 27 27 27 27 27 27 27 26 26 25
12 13 12 13 14 14 15 15 16 16 16 17 18 18 19 20 21 22 22 22 22 22 22 23 23 23 23 24 24 25 25 25 24 24 24 24 24 24 24 24 23 23 22
11 11 11 11 11 11 12 13 14 14 14 15 15 16 17 17 19 19 19 19 19 19 19 19 20 21 21 22 22 22 22 22 21 21 21 21 22 21 21 20 20 19 19
9 9 9 9 9 10 10 11 11 12 13 13 13 13 14 14 14 14 15 15 15 16 17 17 18 18 19 19 19 19 19 19 19 19 19 19 18 18 17 17 17 16 16
7 7 7 8 8 9 9 8 9 9 10 10 10 10 10 10 11 11 11 12 13 14 15 15 16 17 17 17 17 17 17 17 17 17 16 16 15 15 14 14 14 14 14
5 5 5 6 6 6 6 6 7 7 7 7 7 7 8 8 8 8 9 10 11 12 12 13 13 14 14 14 14 14 14 14 14 14 13 13 13 13 12 12 12 12 12
2 2 2 3 2 3 4 4 4 4 4 4 4 5 5 5 6 7 8 9 9 9 10 10 11 11 11 11 11 11 11 11 11 11 10 10 11 11 11 10 10 10 10
1 1 2 2 2 2 3 2 2 2 2 2 3 3 4 5 5 6 6 7 7 8 8 8 9 9 9 9 9 9 9 8 8 8 8 9 9 9 9 8 9 9 8
4 4 4 5 5 6 6 6 5 4 4 4 4 4 4 5 5 5 6 6 7 7 7 7 8 8 8 8 7 7 7 7 7 7 8 8 8 8 7 7 7 7 7
6 6 7 8 8 9 9 8 8 7 6 6 7 7 7 7 7 7 7 7 7 7 7 7 7 7 7 7 7 7 7 6 6 6 7 7 6 6 6 6 7 7 7
8 8 9 10 10 10 10 10 10 10 10 9 9 9 9 9 9 9 9 9 9 9 9 9 8 8 8 8 7 7 7 6 6 6 6 6 6 6 6 6 6 6 6
10 10 10 11 11 11 12 12 12 12 12 12 12 12 12 12 12 12 12 11 11 11 11 11 10 10 9 9 8 8 8 7 7 7 7 7 7 7 7 7 7 7 7
11 12 12 12 12 13 13 13 13 14 14 14 14 14 14 14 14 13 13 13 13 13 13 13 13 13 12 11 11 10 10 9 9 8 8 8 8 8 8 8 8 7 7
13 13 13 13 13 14 14 14 14 14 15 15 14 14 14 14 14 14 14 14 15 15 15 15 14 14 14 13 13 12 11 11 10 10 9 9 9 8 8 8 9 8 8
14 14 14 14 14 14 14 14 15 15 15 15 15 15 15 15 15 15 15 15 15 15 15 14 14 14 14 14 13 13 13 12 11 11 10 10 9 9 9 10 10 9 9
15 15 15 15 15 15 15 15 15 15 15 15 15 15 15 15 15 15 15 15 14 14 14 14 14 14 14 14 14 14 13 13 12 12 12 11 10 10 10 11 11 10 11
16 16 16 15 15 15 15 15 15 15 15 15 15 15 15 15 15 15 15 15 15 15 15 14 14 14 14 14 14 14 14 14 13 13 13 12 12 12 12 12 12 12 12
16 15 15 15 15 15 14 14 14 14 14 14 14 14 14 14 15 15 15 15 15 15 15 15 14 14 14 14 14 14 14 14 14 14 14 14 14 14 13 13 13 13 13
15 15 15 15 15 14 14 14 14 14 14 14 14 14 14 14 14 15 15 15 15 15 15 15 15 15 15 15 15 15 15 15 15 15 15 15 15 15 15 15 15 15 15
15 15 15 15 14 14 14 14 14 14 14 13 13 14 14 14 15 15 15 15 15 16 16 15 16 16 16 16 16 16 16 16 17 17 17 16 16 16 16 16 17 17 17
Wind_Direction
271 268 266 263 261 259 257 256 256 257 255 254 254 255 256 255 256 256 257 256 257 259 259 260 261 261 264 267 269 271 272 274 274 275 276 277 278 279 280 281 282 283 285
271 268 265 263 262 260 259 258 259 259 259 257 256 255 255 257 258 258 259 259 260 260 261 262 262 263 264 266 269 272 274 275 275 276 277 279 280 281 282 282 284 285 286
269 269 267 265 263 261 259 259 260 260 260 260 258 256 255 257 258 258 258 259 260 260 260 261 262 264 266 268 269 271 273 274 276 277 279 280 281 282 283 284 285 287 288
268 268 266 264 262 260 260 259 257 257 258 258 257 256 257 258 258 258 259 260 261 262 263 264 266 267 268 270 271 273 274 276 277 279 280 281 282 283 284 285 287 289 290
269 266 263 261 259 257 259 258 256 256 258 258 256 256 257 257 258 259 260 261 263 264 265 267 268 269 271 272 273 275 277 278 280 281 282 282 282 284 285 286 288 289 290
269 264 262 260 257 258 258 260 260 258 260 260 260 258 258 259 260 260 261 262 263 265 268 269 271 273 274 275 276 276 278 279 281 282 282 282 284 285 286 288 289 289 290
270 265 262 261 258 257 257 257 257 260 261 262 261 260 260 261 263 265 266 267 268 269 271 273 274 276 276 277 278 280 281 282 282 283 284 284 285 286 288 289 289 289 290
265 263 264 263 261 261 262 257 255 258 259 259 260 262 264 266 268 269 272 272 272 272 272 274 276 277 278 279 281 281 282 283 284 284 285 286 287 288 288 288 289 290 291
267 266 269 269 266 265 265 261 256 258 260 263 266 269 271 272 273 273 273 272 273 274 275 277 278 280 281 282 282 283 283 284 285 286 287 288 288 288 288 289 290 291 291
269 268 268 268 266 266 264 264 265 267 269 271 273 275 276 277 277 277 276 276 277 278 279 280 282 283 285 285 286 286 286 287 288 289 290 291 291 290 291 293 292 292 292
264 265 267 271 276 273 272 270 270 271 270 272 275 280 281 281 281 281 283 285 284 284 285 286 287 287 289 290 291 291 291 291 291 292 292 292 293 293 295 295 294 292 293
266 269 277 280 283 279 277 281 281 274 275 279 284 288 290 292 290 291 294 296 295 294 295 295 295 295 295 296 296 295 295 296 295 295 295 295 296 296 296 296 294 294 296
288 281 300 301 298 302 304 299 295 287 288 293 298 303 304 305 303 302 303 304 304 305 305 305 304 303 302 303 303 303 303 302 301 301 301 301 301 300 300 300 299 299 301
42 71 52 48 48 27 19 17 24 28 17 2 350 341 337 332 328 324 324 324 323 322 320 318 317 315 314 313 312 312 311 310 309 308 308 309 308 307 306 305 305 305 307
92 84 75 73 67 61 60 64 66 67 57 48 43 34 22 15 11 5 359 354 348 344 341 338 336 334 332 330 327 326 324 322 320 320 320 320 318 317 315 313 314 315 315
95 90 84 78 73 70 69 69 69 70 68 60 54 49 45 41 34 28 23 18 14 11 7 4 359 356 353 350 347 345 343 341 340 338 337 336 336 335 332 328 327 326 326
91 86 83 80 77 75 74 72 71 71 69 65 61 58 55 51 47 43 40 37 35 32 28 24 19 16 12 9 5 4 3 1 359 356 354 353 353 350 347 344 342 339 337
89 85 84 83 82 80 77 76 74 73 71 68 66 63 61 58 54 52 50 47 44 41 38 35 32 30 27 26 24 23 22 19 15 11 8 6 4 1 359 356 353 351 348
88 87 87 86 84 81 79 78 77 75 73 71 68 65 61 58 56 55 53 51 49 47 45 44 41 40 38 36 34 31 27 24 21 19 17 15 13 10 8 5 1 357 354
88 89 89 86 84 83 81 78 77 75 73 70 67 63 60 58 56 55 55 53 51 49 47 45 43 42 40 39 37 34 31 29 26 24 21 16 13 11 10 8 5 1 357
89 89 88 86 85 83 80 78 76 74 71 69 66 64 61 59 58 57 55 52 49 46 44 42 41 40 39 37 35 32 30 28 25 21 17 13 11 9 6 3 359 356 352
89 88 86 85 84 82 80 78 75 72 69 67 65 63 61 58 55 53 50 47 44 42 41 40 38 37 35 33 31 29 28 25 22 19 16 12 9 4 358 355 352 350 346
87 86 84 82 81 80 79 76 73 70 68 65 63 60 57 55 52 49 47 45 43 41 39 36 34 32 31 29 28 26 24 22 19 16 13 10 6 1 357 353 350 346 343
87 85 83 81 80 78 76 73 70 67 65 62 59 57 55 52 49 46 44 41 39 37 35 32 29 27 25 22 20 18 16 14 11 8 5 2 359 357 354 352 349 346 342
86 84 83 80 78 75 73 71 68 66 63 60 57 54 51 49 46 44 41 38 35 33 30 28 25 23 21 19 16 14 11 8 6 3 1 358 356 353 350 348 345 343 341
85 83 81 79 76 74 72 70 68 65 62 58 55 51 48 46 44 42 39 36 32 29 27 24 21 19 17 15 13 11 8 6 3 0 357 355 352 348 345 342 340 339 336
Height
5749 5749 5749 5749 5750 5750 5751 5752 5753 5754 5755 5756 5757 5759 5760 5762 5763 5764 5765 5766 5767 5768 5769 5770 5770 5771 5771 5771 5771 5771 5771 5770 5770 5768 5767 5766 5764 5763 5761 5759 5757 5755 5753
5743 5743 5743 5743 5744 5744 5745 5746 5747 5747 5748 5749 5750 5752 5753 5754 5756 5757 5758 5759 5760 5761 5762 5762 5763 5763 5763 5764 5763 5763 5762 5762 5761 5760 5758 5756 5755 5753 5751 5749 5747 5745 5743
5737 5737 5737 5737 5738 5738 5739 5739 5740 5741 5742 5743 5744 5745 5746 5747 5749 5750 5751 5752 5753 5754 5754 5755 5755 5756 5755 5755 5755 5755 5754 5753 5752 5751 5749 5747 5746 5744 5742 5740 5738 5736 5734
5731 5731 5731 5731 5732 5732 5733 5733 5734 5735 5736 5737 5738 5739 5740 5741 5742 5743 5744 5745 5746 5746 5747 5747 5747 5748 5747 5747 5747 5746 5745 5744 5743 5742 5740 5738 5737 5735 5733 5731 5729 5727 5725
5725 5725 5725 5726 5726 5726 5727 5727 5728 5729 5730 5731 5731 5733 5734 5735 5735 5736 5737 5738 5738 5739 5740 5740 5740 5740 5739 5739 5738 5738 5737 5735 5734 5733 5731 5730 5728 5727 5725 5723 5721 5719 5717
5719 5720 5720 5721 5721 5722 5722 5722 5723 5724 5724 5725 5726 5727 5727 5728 5729 5730 5731 5731 5732 5732 5733 5732 5732 5732 5731 5731 5730 5729 5728 5727 5726 5725 5723 5722 5720 5719 5717 5715 5713 5712 5710
5715 5715 5715 5716 5717 5717 5717 5718 5719 5719 5720 5720 5721 5721 5722 5722 5723 5723 5724 5725 5725 5725 5725 5725 5725 5724 5724 5723 5723 5722 5721 5719 5718 5717 5716 5714 5713 5711 5710 5708 5706 5704 5702
5711 5712 5712 5712 5712 5713 5713 5714 5714 5715 5715 5716 5716 5717 5717 5717 5717 5718 5718 5718 5719 5719 5719 5719 5718 5718 5717 5717 5716 5715 5714 5712 5711 5710 5709 5707 5706 5704 5702 5701 5699 5698 5696
5708 5708 5709 5709 5709 5709 5710 5710 5711 5711 5711 5712 5712 5712 5712 5713 5713 5713 5713 5713 5713 5713 5713 5713 5712 5712 5711 5710 5709 5708 5707 5706 5705 5703 5702 5700 5699 5697 5696 5695 5693 5692 5691
5706 5706 5706 5706 5706 5706 5707 5707 5708 5708 5708 5709 5709 5709 5709 5709 5709 5708 5708 5708 5708 5708 5708 5708 5707 5706 5705 5704 5704 5703 5701 5700 5699 5698 5696 5695 5693 5692 5691 5689 5688 5687 5686
5704 5704 5704 5704 5704 5704 5704 5705 5705 5705 5706 5706 5706 5706 5705 5705 5705 5705 5705 5705 5705 5704 5704 5703 5703 5702 5701 5700 5699 5698 5696 5695 5694 5693 5692 5690 5689 5688 5686 5685 5684 5683 5682
5702 5702 5703 5703 5703 5702 5703 5703 5703 5703 5703 5704 5704 5704 5703 5703 5703 5702 5702 5702 5701 5701 5700 5699 5698 5698 5697 5695 5694 5693 5692 5691 5690 5689 5688 5686 5685 5684 5683 5681 5680 5679 5678
5702 5702 5702 5702 5702 5702 5702 5702 5702 5702 5702 5702 5702 5702 5702 5702 5701 5701 5700 5700 5699 5698 5697 5696 5695 5694 5693 5692 5691 5690 5689 5688 5687 5685 5684 5683 5682 5681 5679 5678 5677 5676 5675
5702 5702 5702 5702 5702 5702 5701 5701 5701 5701 5701 5701 5701 5701 5701 5701 5700 5700 5699 5698 5697 5696 5695 5694 5693 5692 5691 5690 5689 5688 5686 5685 5684 5683 5682 5681 5679 5678 5677 5676 5675 5674 5672
5703 5703 5703 5703 5703 5702 5702 5702 5702 5702 5702 5702 5702 5701 5701 5700 5700 5699 5698 5697 5696 5695 5694 5693 5692 5691 5689 5688 5687 5686 5685 5683 5682 5681 5680 5679 5678 5676 5675 5674 5673 5671 5670
5705 5705 5705 5705 5704 5704 5704 5703 5703 5703 5703 5702 5702 5702 5701 5701 5700 5699 5698 5697 5696 5695 5694 5692 5691 5690 5689 5687 5686 5685 5684 5682 5681 5680 5679 5677 5676 5675 5674 5673 5671 5670 5669
5707 5707 5707 5707 5707 5706 5706 5705 5705 5705 5704 5704 5704 5703 5703 5702 5701 5700 5699 5698 5697 5696 5694 5693 5691 5690 5689 5687 5686 5684 5683 5682 5681 5679 5678 5677 5675 5674 5673 5672 5670 5669 5668
5710 5710 5709 5709 5709 5709 5709 5708 5708 5707 5707 5707 5706 5706 5705 5704 5703 5702 5701 5700 5699 5697 5696 5694 5692 5691 5689 5688 5686 5685 5683 5682 5681 5679 5678 5676 5675 5674 5672 5671 5670 5668 5667
5712 5712 5712 5712 5712 5712 5712 5711 5711 5710 5710 5710 5709 5709 5708 5707 5706 5705 5703 5702 5701 5699 5698 5696 5694 5692 5691 5689 5687 5686 5684 5683 5681 5679 5678 5677 5675 5674 5672 5671 5669 5668 5666
5716 5716 5716 5716 5716 5715 5715 5715 5715 5714 5714 5713 5712 5712 5711 5710 5709 5707 5706 5705 5703 5702 5700 5698 5697 5695 5693 5691 5689 5688 5686 5684 5682 5680 5679 5677 5676 5674 5673 5671 5669 5668 5666
5720 5720 5720 5719 5719 5719 5719 5719 5718 5718 5717 5717 5716 5715 5714 5713 5712 5710 5709 5708 5706 5704 5703 5701 5699 5697 5695 5693 5691 5689 5687 5685 5683 5682 5680 5678 5676 5675 5673 5671 5670 5668 5666
5724 5723 5723 5723 5723 5723 5723 5723 5722 5721 5721 5720 5719 5719 5718 5716 5715 5714 5712 5710 5709 5707 5705 5703 5702 5700 5697 5695 5693 5691 5689 5687 5685 5683 5681 5679 5677 5675 5673 5671 5669 5667 5665
5728 5728 5727 5727 5727 5727 5727 5726 5726 5725 5724 5724 5723 5722 5721 5719 5718 5716 5715 5713 5711 5709 5708 5706 5704 5702 5699 5697 5695 5693 5691 5688 5686 5684 5682 5679 5677 5675 5673 5671 5669 5666 5664
5732 5732 5732 5732 5731 5731 5731 5730 5729 5729 5728 5727 5726 5725 5724 5722 5721 5719 5717 5716 5714 5712 5710 5708 5706 5704 5701 5699 5697 5694 5692 5689 5687 5685 5682 5680 5677 5675 5673 5670 5668 5666 5663
5736 5736 5736 5735 5735 5735 5734 5733 5733 5732 5731 5730 5729 5728 5726 5725 5723 5722 5720 5718 5716 5714 5712 5710 5707 5705 5703 5700 5698 5695 5693 5690 5687 5685 5682 5680 5677 5675 5672 5670 5667 5664 5662
5740 5740 5739 5739 5739 5738 5738 5737 5736 5735 5734 5733 5732 5730 5729 5727 5726 5724 5722 5720 5718 5716 5714 5711 5709 5707 5704 5701 5699 5696 5693 5690 5688 5685 5682 5679 5676 5674 5671 5668 5665 5663 5660